{"data":{"norad_id":66079,"intl_designator":"2025-235X","name":"STARLINK-35402","alt_names":[],"object_type":"PAYLOAD","status":"ACTIVE","operator":null,"country":"US","launch_date":"2025-10-19","launch_site_code":"AFETR","launch_vehicle":null,"mission":null,"orbit_class":"UNKNOWN","rcs_meters":null,"size_class":null,"mass_kg":null,"dimensions":null,"purposes":["comms"],"wikipedia_slug":null,"has_3d_model":false,"image_url":null,"decayed_at":null,"tle_current":{"epoch":"2026-05-24T15:34:47.398080Z","epoch_age_seconds":105063,"freshness":"FRESH","line1":"1 66079U 25235X   26144.64915970  .00003999  00000+0  14710-3 0  9998","line2":"2 66079  53.1577 252.2687 0001283  87.4623 272.6524 15.30193740 34552","mean_motion":15.3019374,"eccentricity":0.0001283,"inclination_deg":53.1577,"raan_deg":252.2687,"arg_perigee_deg":87.4623,"mean_anomaly_deg":272.6524,"bstar":0.0001471,"rev_number":3455,"period_min":94.105730690024,"perigee_km":474.35447324607,"apogee_km":476.11304818327,"semimajor_km":6853.3707607147,"source":"CELESTRAK","updated_at":"2026-05-25T13:38:21.024914Z"}}}